Time,TemperatureF,DewpointF,PressureIn,WindDirection,WindDirectionDegrees,WindSpeedMPH,WindSpeedGustMPH,Humidity,HourlyPrecipIn,Conditions,Clouds,dailyrainin,SoftwareType,DateUTC
2013-09-10 00:08:00,58.6,54.0,29.72,SW,231,0.0,0.0,85,0.00,,,0.00,weatherlink.com 1.10,2013-09-10 07:08:00,
2013-09-10 00:23:00,58.3,54.0,29.72,SW,231,0.0,0.0,86,0.00,,,0.00,weatherlink.com 1.10,2013-09-10 07:23:00,
2013-09-10 00:38:00,57.9,54.0,29.73,SW,231,0.0,0.0,87,0.00,,,0.00,weatherlink.com 1.10,2013-09-10 07:38:00,
2013-09-10 00:53:00,57.6,54.0,29.73,SW,232,0.0,0.0,87,0.00,,,0.00,weatherlink.com 1.10,2013-09-10 07:53:00,
2013-09-10 01:08:00,57.2,53.0,29.73,SW,232,0.0,0.0,87,0.00,,,0.00,weatherlink.com 1.10,2013-09-10 08:08:00,
2013-09-10 01:23:00,56.8,53.0,29.73,SW,231,0.0,0.0,88,0.00,,,0.00,weatherlink.com 1.10,2013-09-10 08:23:00,
2013-09-10 01:38:00,56.7,54.0,29.73,SW,231,0.0,0.0,89,0.00,,,0.00,weatherlink.com 1.10,2013-09-10 08:38:00,
2013-09-10 01:53:00,56.5,53.0,29.73,SW,232,0.0,0.0,89,0.00,,,0.00,weatherlink.com 1.10,2013-09-10 08:53:00,
2013-09-10 02:08:00,56.1,53.0,29.73,SW,231,0.0,0.0,90,0.00,,,0.00,weatherlink.com 1.10,2013-09-10 09:08:00,
2013-09-10 02:23:00,56.0,53.0,29.73,SW,231,0.0,0.0,90,0.00,,,0.00,weatherlink.com 1.10,2013-09-10 09:23:00,
2013-09-10 02:38:00,55.9,53.0,29.74,SW,231,0.0,0.0,90,0.00,,,0.00,weatherlink.com 1.10,2013-09-10 09:38:00,
2013-09-10 02:53:00,56.1,54.0,29.74,SW,232,0.0,0.0,91,0.00,,,0.00,weatherlink.com 1.10,2013-09-10 09:53:00,
2013-09-10 03:08:00,56.5,54.0,29.74,SW,232,0.0,0.0,91,0.00,,,0.00,weatherlink.com 1.10,2013-09-10 10:08:00,
2013-09-10 03:23:00,56.7,54.0,29.74,SW,231,0.0,0.0,91,0.00,,,0.00,weatherlink.com 1.10,2013-09-10 10:23:00,
2013-09-10 03:38:00,56.7,54.0,29.75,SSW,195,0.0,0.0,91,0.00,,,0.00,weatherlink.com 1.10,2013-09-10 10:38:00,
2013-09-10 03:53:00,56.5,54.0,29.75,SSW,194,0.0,0.0,92,0.00,,,0.00,weatherlink.com 1.10,2013-09-10 10:53:00,
2013-09-10 04:08:00,56.2,54.0,29.75,South,174,0.0,0.0,92,0.00,,,0.00,weatherlink.com 1.10,2013-09-10 11:08:00,
2013-09-10 04:23:00,56.2,54.0,29.75,South,174,0.0,0.0,92,0.00,,,0.00,weatherlink.com 1.10,2013-09-10 11:23:00,
2013-09-10 04:38:00,56.0,54.0,29.75,South,175,0.0,0.0,92,0.00,,,0.00,weatherlink.com 1.10,2013-09-10 11:38:00,
2013-09-10 04:53:00,55.9,54.0,29.75,WNW,290,0.0,0.0,93,0.00,,,0.00,weatherlink.com 1.10,2013-09-10 11:53:00,
2013-09-10 05:08:00,55.9,54.0,29.75,WNW,291,0.0,0.0,93,0.00,,,0.00,weatherlink.com 1.10,2013-09-10 12:08:00,
2013-09-10 05:23:00,55.8,54.0,29.76,WNW,290,0.0,0.0,93,0.00,,,0.00,weatherlink.com 1.10,2013-09-10 12:23:00,
2013-09-10 05:38:00,55.9,54.0,29.76,WNW,291,0.0,0.0,93,0.00,,,0.00,weatherlink.com 1.10,2013-09-10 12:38:00,
2013-09-10 05:53:00,56.1,54.0,29.76,WNW,289,0.0,0.0,93,0.00,,,0.00,weatherlink.com 1.10,2013-09-10 12:53:00,
2013-09-10 06:08:00,56.1,54.0,29.77,WNW,291,0.0,0.0,93,0.00,,,0.00,weatherlink.com 1.10,2013-09-10 13:08:00,
2013-09-10 06:24:00,56.0,54.0,29.77,WNW,291,0.0,0.0,93,0.00,,,0.00,weatherlink.com 1.10,2013-09-10 13:24:00,
2013-09-10 06:39:00,56.0,54.0,29.77,WNW,291,0.0,0.0,93,0.00,,,0.00,weatherlink.com 1.10,2013-09-10 13:39:00,
2013-09-10 06:54:00,55.9,54.0,29.78,WNW,291,0.0,0.0,93,0.00,,,0.00,weatherlink.com 1.10,2013-09-10 13:54:00,
2013-09-10 07:09:00,55.9,54.0,29.78,WNW,291,0.0,0.0,93,0.00,,,0.00,weatherlink.com 1.10,2013-09-10 14:09:00,
2013-09-10 07:24:00,55.9,54.0,29.78,NW,318,0.0,0.0,93,0.00,,,0.00,weatherlink.com 1.10,2013-09-10 14:24:00,
2013-09-10 07:39:00,56.2,54.0,29.79,NW,318,0.0,0.0,93,0.00,,,0.00,weatherlink.com 1.10,2013-09-10 14:39:00,
2013-09-10 07:54:00,56.7,55.0,29.79,NW,317,0.0,0.0,93,0.00,,,0.00,weatherlink.com 1.10,2013-09-10 14:54:00,
2013-09-10 08:09:00,57.2,55.0,29.80,NW,318,0.0,0.0,92,0.00,,,0.00,weatherlink.com 1.10,2013-09-10 15:09:00,
2013-09-10 08:24:00,57.7,56.0,29.80,NW,318,0.0,0.0,93,0.00,,,0.00,weatherlink.com 1.10,2013-09-10 15:24:00,
2013-09-10 08:39:00,58.2,56.0,29.80,NW,318,0.0,0.0,92,0.00,,,0.00,weatherlink.com 1.10,2013-09-10 15:39:00,
2013-09-10 08:54:00,58.8,57.0,29.80,NW,325,0.0,0.0,93,0.00,,,0.00,weatherlink.com 1.10,2013-09-10 15:54:00,
2013-09-10 09:09:00,59.3,57.0,29.81,NW,325,0.0,0.0,92,0.00,,,0.00,weatherlink.com 1.10,2013-09-10 16:09:00,
2013-09-10 09:24:00,59.7,57.0,29.81,NW,324,0.0,0.0,91,0.00,,,0.00,weatherlink.com 1.10,2013-09-10 16:24:00,
2013-09-10 09:39:00,60.0,57.0,29.81,NW,325,0.0,0.0,91,0.00,,,0.00,weatherlink.com 1.10,2013-09-10 16:39:00,
2013-09-10 09:54:00,60.3,57.0,29.82,NNW,343,0.0,0.0,90,0.00,,,0.00,weatherlink.com 1.10,2013-09-10 16:54:00,
2013-09-10 10:09:00,60.7,58.0,29.82,NNW,342,0.0,0.0,90,0.00,,,0.00,weatherlink.com 1.10,2013-09-10 17:09:00,
2013-09-10 10:24:00,61.2,58.0,29.82,North,5,0.0,0.0,90,0.00,,,0.00,weatherlink.com 1.10,2013-09-10 17:24:00,
2013-09-10 10:39:00,61.8,59.0,29.82,North,5,0.0,0.0,89,0.00,,,0.00,weatherlink.com 1.10,2013-09-10 17:39:00,
2013-09-10 10:54:00,62.3,59.0,29.82,East,86,0.0,0.0,88,0.00,,,0.00,weatherlink.com 1.10,2013-09-10 17:54:00,
2013-09-10 11:09:00,62.8,59.0,29.82,SE,145,0.0,0.0,87,0.00,,,0.00,weatherlink.com 1.10,2013-09-10 18:09:00,
2013-09-10 11:24:00,63.3,59.0,29.82,NNW,338,0.0,0.0,87,0.00,,,0.00,weatherlink.com 1.10,2013-09-10 18:24:00,
2013-09-10 11:39:00,63.6,60.0,29.82,NE,34,0.0,0.0,87,0.00,,,0.00,weatherlink.com 1.10,2013-09-10 18:39:00,
2013-09-10 11:54:00,64.1,60.0,29.82,ESE,121,0.0,0.0,85,0.00,,,0.00,weatherlink.com 1.10,2013-09-10 18:54:00,
2013-09-10 12:09:00,64.3,60.0,29.82,SE,136,1.0,2.0,85,0.00,,,0.00,weatherlink.com 1.10,2013-09-10 19:09:00,
2013-09-10 12:24:00,64.5,60.0,29.83,NE,47,0.0,2.0,85,0.00,,,0.00,weatherlink.com 1.10,2013-09-10 19:24:00,
2013-09-10 12:39:00,64.7,60.0,29.83,ESE,113,0.0,2.0,84,0.00,,,0.00,weatherlink.com 1.10,2013-09-10 19:39:00,
2013-09-10 12:54:00,64.5,60.0,29.83,SSE,147,1.0,4.0,84,0.00,,,0.00,weatherlink.com 1.10,2013-09-10 19:54:00,
2013-09-10 13:09:00,65.1,60.0,29.83,North,358,1.0,3.0,82,0.00,,,0.00,weatherlink.com 1.10,2013-09-10 20:09:00,
2013-09-10 13:24:00,65.2,60.0,29.83,SSE,149,0.0,4.0,83,0.00,,,0.00,weatherlink.com 1.10,2013-09-10 20:24:00,
2013-09-10 13:39:00,65.5,60.0,29.84,SSW,195,1.0,4.0,82,0.00,,,0.00,weatherlink.com 1.10,2013-09-10 20:39:00,
2013-09-10 13:54:00,65.5,60.0,29.84,East,99,2.0,4.0,81,0.00,,,0.00,weatherlink.com 1.10,2013-09-10 20:54:00,
2013-09-10 14:09:00,65.4,60.0,29.84,North,5,1.0,2.0,82,0.00,,,0.00,weatherlink.com 1.10,2013-09-10 21:09:00,
2013-09-10 14:39:00,65.0,60.0,29.83,North,6,1.0,4.0,83,0.00,,,0.00,weatherlink.com 1.10,2013-09-10 21:39:00,
2013-09-10 14:54:00,65.3,60.0,29.84,North,9,0.0,1.0,83,0.00,,,0.00,weatherlink.com 1.10,2013-09-10 21:54:00,
2013-09-10 15:09:00,65.2,60.0,29.84,ESE,106,0.0,1.0,83,0.00,,,0.00,weatherlink.com 1.10,2013-09-10 22:09:00,
2013-09-10 15:24:00,65.0,60.0,29.84,SE,129,1.0,3.0,83,0.00,,,0.00,weatherlink.com 1.10,2013-09-10 22:24:00,
2013-09-10 15:39:00,64.6,60.0,29.84,North,353,0.0,2.0,84,0.00,,,0.00,weatherlink.com 1.10,2013-09-10 22:39:00,
2013-09-10 15:54:00,64.9,60.0,29.83,SE,124,0.0,1.0,84,0.00,,,0.00,weatherlink.com 1.10,2013-09-10 22:54:00,
2013-09-10 16:10:00,64.8,60.0,29.83,ESE,105,1.0,2.0,84,0.00,,,0.00,weatherlink.com 1.10,2013-09-10 23:10:00,
2013-09-10 16:25:00,64.9,60.0,29.83,SE,140,0.0,1.0,84,0.00,,,0.00,weatherlink.com 1.10,2013-09-10 23:25:00,
2013-09-10 16:40:00,64.9,60.0,29.83,ESE,116,0.0,1.0,84,0.00,,,0.00,weatherlink.com 1.10,2013-09-10 23:40:00,
2013-09-10 16:55:00,64.7,60.0,29.84,South,186,0.0,2.0,84,0.00,,,0.00,weatherlink.com 1.10,2013-09-10 23:55:00,
2013-09-10 17:10:00,64.7,60.0,29.83,South,177,0.0,0.0,84,0.00,,,0.00,weatherlink.com 1.10,2013-09-11 00:10:00,
2013-09-10 17:25:00,64.5,60.0,29.83,ESE,115,0.0,0.0,85,0.00,,,0.00,weatherlink.com 1.10,2013-09-11 00:25:00,
2013-09-10 17:40:00,64.3,60.0,29.83,ESE,114,1.0,1.0,86,0.00,,,0.00,weatherlink.com 1.10,2013-09-11 00:40:00,
2013-09-10 17:55:00,64.1,60.0,29.84,South,188,0.0,0.0,86,0.00,,,0.00,weatherlink.com 1.10,2013-09-11 00:55:00,
2013-09-10 18:10:00,64.0,60.0,29.83,South,188,0.0,0.0,86,0.00,,,0.00,weatherlink.com 1.10,2013-09-11 01:10:00,
2013-09-10 18:25:00,63.9,60.0,29.84,South,188,0.0,0.0,86,0.00,,,0.00,weatherlink.com 1.10,2013-09-11 01:25:00,
2013-09-10 18:40:00,63.9,60.0,29.84,South,188,0.0,0.0,86,0.00,,,0.00,weatherlink.com 1.10,2013-09-11 01:40:00,
2013-09-10 18:55:00,63.7,60.0,29.84,South,187,0.0,0.0,86,0.00,,,0.00,weatherlink.com 1.10,2013-09-11 01:55:00,
2013-09-10 19:10:00,63.5,60.0,29.84,South,187,0.0,0.0,87,0.00,,,0.00,weatherlink.com 1.10,2013-09-11 02:10:00,
2013-09-10 19:25:00,63.3,59.0,29.84,South,188,0.0,0.0,87,0.00,,,0.00,weatherlink.com 1.10,2013-09-11 02:25:00,
2013-09-10 19:40:00,63.2,60.0,29.85,South,188,0.0,0.0,88,0.00,,,0.00,weatherlink.com 1.10,2013-09-11 02:40:00,
2013-09-10 19:55:00,63.0,59.0,29.85,South,187,0.0,0.0,88,0.00,,,0.00,weatherlink.com 1.10,2013-09-11 02:55:00,
2013-09-10 20:10:00,62.7,60.0,29.86,South,187,0.0,0.0,89,0.00,,,0.00,weatherlink.com 1.10,2013-09-11 03:10:00,
2013-09-10 20:25:00,62.6,60.0,29.86,South,187,0.0,0.0,90,0.00,,,0.00,weatherlink.com 1.10,2013-09-11 03:25:00,
2013-09-10 20:40:00,62.4,60.0,29.86,South,187,0.0,0.0,90,0.00,,,0.00,weatherlink.com 1.10,2013-09-11 03:40:00,
2013-09-10 20:55:00,62.2,60.0,29.86,South,187,0.0,0.0,91,0.00,,,0.00,weatherlink.com 1.10,2013-09-11 03:55:00,
2013-09-10 21:10:00,62.0,59.0,29.87,South,187,0.0,0.0,91,0.00,,,0.00,weatherlink.com 1.10,2013-09-11 04:10:00,
2013-09-10 21:25:00,62.0,60.0,29.87,South,187,0.0,0.0,92,0.00,,,0.00,weatherlink.com 1.10,2013-09-11 04:25:00,
2013-09-10 21:40:00,61.9,60.0,29.88,South,188,0.0,0.0,92,0.00,,,0.00,weatherlink.com 1.10,2013-09-11 04:40:00,
2013-09-10 21:55:00,61.8,60.0,29.88,South,187,0.0,0.0,92,0.00,,,0.00,weatherlink.com 1.10,2013-09-11 04:55:00,
2013-09-10 22:10:00,61.6,60.0,29.88,South,188,0.0,0.0,93,0.00,,,0.00,weatherlink.com 1.10,2013-09-11 05:10:00,
2013-09-10 22:25:00,61.6,60.0,29.88,South,187,0.0,0.0,93,0.00,,,0.00,weatherlink.com 1.10,2013-09-11 05:25:00,
2013-09-10 22:40:00,61.6,60.0,29.89,South,187,0.0,0.0,93,0.00,,,0.00,weatherlink.com 1.10,2013-09-11 05:40:00,
2013-09-10 22:55:00,61.5,60.0,29.89,South,187,0.0,0.0,93,0.00,,,0.00,weatherlink.com 1.10,2013-09-11 05:55:00,
2013-09-10 23:10:00,61.5,60.0,29.89,South,187,0.0,0.0,94,0.00,,,0.00,weatherlink.com 1.10,2013-09-11 06:10:00,
2013-09-10 23:25:00,61.4,60.0,29.89,South,187,0.0,0.0,94,0.00,,,0.00,weatherlink.com 1.10,2013-09-11 06:25:00,
2013-09-10 23:40:00,61.4,60.0,29.89,South,187,0.0,0.0,94,0.00,,,0.00,weatherlink.com 1.10,2013-09-11 06:40:00,
2013-09-10 23:55:00,61.3,60.0,29.89,South,188,0.0,0.0,94,0.00,,,0.00,weatherlink.com 1.10,2013-09-11 06:55:00,